THORAD AGENA D DEB, 4734

Orbit data source: Space-Track

THORAD AGENA D DEB, 4734 is space debris in SSO originally from a launch on Wed, 08 Apr 1970 UTC launched from the Air Force Western Test Range (AFWTR). Debris objects in space refer to the collection of defunct objects orbiting the Earth. Examples of debris include non-operational satellites, rocket bodies, and fragments generated from explosions, collisions, or faulty payload assembly.

Loading next visibility...
Identifier
4734, 1970-025CH
Orbit
SSO
Country
Flag of USUS
Related business
Manufacturer
Unknown
Mission
Spacecraft
Bus & Motor
Unknown
Mass
Unknown
Launch date (UTC)
1970-04-08 (56 years ago)
Launch vehicle
Unknown
Launch site
Air Force Western Test Range (AFWTR)
Object type
Payload
Rocket body
Debris
Shape & HBR
Unknown shape, 0.1 m
Radar Cross Section
Small (<0.1 m²)

Expand to show TLE details & history
Last TLE update: 16 hours ago

TLE from 16 hours ago
0 THORAD AGENA D DEB
1 04734U 70025CH  26035.15957906  .00000588  00000-0  53879-3 0  9996
2 04734 100.1118 109.6542 0080651 347.5358  12.3799 13.86286580804138
Epoch: 2026-02-04T03:49Z
TLE epoch observation values (Epoch: 2026-02-04T03:49:47.630Z)
Latitude
-0.0001°
Longitude
-82.1244°
Altitude
886.843 km
Speed
7.438 km/s
True Right ascension
07h 18m 37s
True Declination
0° 00' 00"
Sunlit
Object was in full shadow at epoch
Visualization orbit readout
Latitude
Unknown
Longitude
Unknown
Altitude
Unknown
Speed
Unknown
Apparent Right ascension
Unknown
Apparent Declination
Unknown
Sunlit
N/A
Visualization observer readout
Local Sidereal Time
21:22:08
Azimuth
Unknown
Elevation
Unknown
Doppler factor
Unknown
Orbital elements
Apogee altitude
997.961 km
Perigee altitude
879.935 km
Semi-major axis
7,317.085 km
Eccentricity
0.00807
Inclination
100.1118°
RAAN
109.6542°
Arg. of periapsis
347.5358°
True anomaly
12.58001°
Mean anomaly
12.3799°
Eccentric anomaly
12.47976°
Mean motion
3.46766 °/min
Orbital period
103.82 mins
BSTAR
0.00053879
Loading maneuver chart data...
Computing Atmospheric mass density...

Documentation

Showing up to 5 results
|